| time (UTC) | temp F | wind direction | speed knots | gust knots | rain 1hr in | rain 24hr in | rain mn in | humidity % | barometer mb |
| 20260505013023 | 55 | 252 | 0.0 | 1.7 | 0.00 | 0.00 | 0.00 | 64 | 1010.9 |
| 20260505011558 | 56 | 239 | 0.9 | 4.3 | 0.00 | 0.00 | 0.00 | 63 | 1010.8 |
| 20260505010059 | 56 | 149 | 0.0 | 3.5 | 0.00 | 0.00 | 0.00 | 62 | 1010.6 |
| 20260505004545 | 57 | 193 | 0.0 | 1.7 | 0.00 | 0.00 | 0.00 | 60 | 1010.4 |
| 20260505003009 | 58 | 200 | 0.0 | 1.7 | 0.00 | 0.00 | 0.00 | 59 | 1010.1 |
| 20260505001549 | 59 | 230 | 0.0 | 1.7 | 0.00 | 0.00 | 0.00 | 57 | 1009.8 |
| 20260505000004 | 59 | 218 | 0.9 | 6.1 | 0.00 | 0.00 | 0.00 | 55 | 1009.7 |
| 20260504234543 | 60 | 240 | 0.9 | 3.5 | 0.00 | 0.00 | 0.00 | 54 | 1009.5 |
| 20260504233018 | 61 | 238 | 0.9 | 6.1 | 0.00 | 0.00 | 0.00 | 52 | 1009.2 |
| 20260504231555 | 62 | 218 | 0.9 | 4.3 | 0.00 | 0.00 | 0.00 | 51 | 1009.0 |
| 20260504230059 | 63 | 209 | 0.9 | 6.1 | 0.00 | 0.00 | 0.00 | 50 | 1008.9 |
| 20260504230001 | 63 | 213 | 0.0 | 6.1 | 0.00 | 0.00 | 0.00 | 49 | 1008.9 |
| 20260504224535 | 64 | 265 | 0.0 | 2.6 | 0.00 | 0.00 | 0.00 | 48 | 1008.6 |
| 20260504223016 | 64 | 221 | 1.7 | 5.2 | 0.00 | 0.00 | 0.00 | 48 | 1008.7 |
| 20260504221553 | 66 | 265 | 0.9 | 5.2 | 0.00 | 0.00 | 0.00 | 46 | 1008.5 |
| 20260504220049 | 68 | 221 | 0.9 | 3.5 | 0.00 | 0.00 | 0.00 | 43 | 1008.4 |
| 20260504214531 | 69 | 219 | 0.9 | 6.1 | 0.00 | 0.00 | 0.00 | 41 | 1008.4 |
| 20260504213013 | 69 | 247 | 0.9 | 4.3 | 0.00 | 0.00 | 0.00 | 40 | 1008.3 |
| 20260504211618 | 70 | 276 | 0.0 | 4.3 | 0.00 | 0.00 | 0.00 | 38 | 1008.2 |
| 20260504210053 | 72 | 169 | 0.0 | 4.3 | 0.00 | 0.00 | 0.00 | 36 | 1008.0 |
| 20260504204532 | 72 | 240 | 0.9 | 7.8 | 0.00 | 0.00 | 0.00 | 35 | 1008.1 |
| 20260504203007 | 72 | 237 | 0.0 | 6.1 | 0.00 | 0.00 | 0.00 | 35 | 1008.0 |
| 20260504201545 | 72 | 157 | 1.7 | 7.0 | 0.00 | 0.00 | 0.00 | 33 | 1008.2 |
| 20260504200054 | 73 | 255 | 1.7 | 8.7 | 0.00 | 0.00 | 0.00 | 33 | 1008.2 |
| 20260504194533 | 72 | 265 | 0.9 | 7.8 | 0.00 | 0.00 | 0.00 | 34 | 1008.1 |
| 20260504193009 | 72 | 226 | 0.9 | 4.3 | 0.00 | 0.00 | 0.00 | 32 | 1008.2 |
| 20260504191606 | 72 | 84 | 0.9 | 12.2 | 0.00 | 0.00 | 0.00 | 32 | 1008.2 |
| 20260504190108 | 72 | 221 | 0.9 | 6.1 | 0.00 | 0.00 | 0.00 | 33 | 1008.4 |
| 20260504184545 | 72 | 229 | 1.7 | 5.2 | 0.00 | 0.00 | 0.00 | 31 | 1008.5 |
| 20260504183011 | 72 | 67 | 0.9 | 5.2 | 0.00 | 0.00 | 0.00 | 32 | 1008.5 |
| 20260504181558 | 72 | 53 | 0.9 | 5.2 | 0.00 | 0.00 | 0.00 | 30 | 1008.8 |
| 20260504180059 | 71 | 113 | 0.9 | 5.2 | 0.00 | 0.00 | 0.00 | 32 | 1008.7 |
| 20260504180000 | 71 | 245 | 1.7 | 5.2 | 0.00 | 0.00 | 0.00 | 32 | 1009.1 |
| 20260504174543 | 71 | 243 | 1.7 | 7.0 | 0.00 | 0.00 | 0.00 | 31 | 1009.3 |
| 20260504173015 | 70 | 236 | 0.9 | 8.7 | 0.00 | 0.00 | 0.00 | 34 | 1009.3 |
| 20260504171553 | 69 | 22 | 3.5 | 10.4 | 0.00 | 0.00 | 0.00 | 33 | 1009.3 |
| 20260504081527 | 40 | 10 | 0.0 | 0.9 | 0.00 | 0.00 | 0.00 | 66 | 1011.8 |
| 20260504044533 | 38 | 11 | 0.0 | 0.0 | 0.00 | 0.00 | 0.00 | 70 | 1011.8 |
| 20260504043013 | 38 | 11 | 0.0 | 0.0 | 0.00 | 0.00 | 0.00 | 68 | 1011.9 |
| 20260504041547 | 38 | 11 | 0.0 | 0.0 | 0.00 | 0.00 | 0.00 | 67 | 1011.8 |
| 20260504040128 | 37 | 11 | 0.0 | 0.0 | 0.00 | 0.00 | 0.00 | 69 | 1011.7 |
| 20260504034533 | 37 | 11 | 0.0 | 0.9 | 0.00 | 0.00 | 0.00 | 68 | 1011.5 |
| 20260504033009 | 38 | 11 | 0.0 | 0.0 | 0.00 | 0.00 | 0.00 | 67 | 1011.4 |
| 20260504031559 | 38 | 11 | 0.0 | 0.0 | 0.00 | 0.00 | 0.00 | 68 | 1011.3 |
| 20260504030057 | 36 | 11 | 0.0 | 0.9 | 0.00 | 0.00 | 0.00 | 71 | 1011.2 |
| 20260504024537 | 37 | 11 | 0.0 | 0.0 | 0.00 | 0.00 | 0.00 | 72 | 1011.1 |
| 20260504023014 | 36 | 11 | 0.0 | 0.0 | 0.00 | 0.00 | 0.00 | 72 | 1011.0 |
| 20260504021552 | 37 | 345 | 0.0 | 0.9 | 0.00 | 0.00 | 0.00 | 72 | 1011.1 |
| 20260504020111 | 37 | 345 | 0.0 | 0.0 | 0.00 | 0.00 | 0.00 | 71 | 1010.9 |
| 20260504020001 | 37 | 345 | 0.0 | 0.0 | 0.00 | 0.00 | 0.00 | 71 | 1010.9 |
| 20260504014542 | 38 | 345 | 0.0 | 0.0 | 0.00 | 0.00 | 0.00 | 70 | 1010.9 |